This is the latest recevied weather packets stored in our database for station/object OK1ALX-6. If no packets are shown the sender has not sent any weather packets the latest 1 day(s).
| Time | Temp. | Humidity | Pressure | Rain* | Wind** | Luminosity | Snow |
|---|---|---|---|---|---|---|---|
| 1777991403 | 25° C | 39% | 1008.4 hPa | 0 mm | 1.79 m/s, 140° | 131 W/m² | - |
| 1777990803 | 24.44° C | 40% | 1008.7 hPa | 0 mm | 1.34 m/s, 140° | 362 W/m² | - |
| 1777990211 | 25.56° C | 41% | 1008.4 hPa | 0 mm | 0.89 m/s, 81° | 441 W/m² | - |
| 1777989603 | 26.11° C | 37% | 1008.7 hPa | 0 mm | 0.89 m/s, 63° | 500 W/m² | - |
| 1777989003 | 25° C | 40% | 1008.9 hPa | 0 mm | 1.34 m/s, 48° | 511 W/m² | - |
| 1777988403 | 25° C | 39% | 1008.8 hPa | 0 mm | 1.79 m/s, 76° | 541 W/m² | - |
| 1777987803 | 25° C | 38% | 1008.9 hPa | 0 mm | 1.34 m/s, 69° | 509 W/m² | - |
| 1777987211 | 25° C | 39% | 1009.3 hPa | 0 mm | 0.89 m/s, 115° | 521 W/m² | - |
| 1777986603 | 25° C | 39% | 1009 hPa | 0 mm | 0.45 m/s, 205° | 596 W/m² | - |
| 1777986003 | 25° C | 37% | 1009.2 hPa | 0 mm | 1.34 m/s, 134° | 553 W/m² | - |
| 1777985403 | 25° C | 40% | 1009.4 hPa | 0 mm | 0.89 m/s, 101° | 588 W/m² | - |
| 1777984803 | 24.44° C | 39% | 1009.6 hPa | 0 mm | 1.34 m/s, 90° | 380 W/m² | - |
| 1777984203 | 24.44° C | 39% | 1009.4 hPa | 0 mm | 1.34 m/s, 37° | 580 W/m² | - |
| 1777983603 | 25° C | 39% | 1009.6 hPa | 0 mm | 0.89 m/s, 60° | 576 W/m² | - |
| 1777983003 | 25° C | 38% | 1009.9 hPa | 0 mm | 0.89 m/s, 52° | 610 W/m² | - |
| 1777982403 | 24.44° C | 42% | 1010.2 hPa | 0 mm | 0.89 m/s, 64° | 636 W/m² | - |
| 1777981803 | 23.89° C | 38% | 1010.3 hPa | 0 mm | 0.89 m/s, 94° | 645 W/m² | - |
| 1777981203 | 23.33° C | 43% | 1010.5 hPa | 0 mm | 1.34 m/s, 143° | 573 W/m² | - |
| 1777980603 | 23.89° C | 40% | 1010.4 hPa | 0 mm | 1.34 m/s, 79° | 289 W/m² | - |
| 1777979403 | 22.78° C | 40% | 1010.5 hPa | 0 mm | 1.34 m/s, 113° | 640 W/m² | - |
| 1777978803 | 22.78° C | 42% | 1010.7 hPa | 0 mm | 0.89 m/s, 41° | 623 W/m² | - |
| 1777978203 | 22.22° C | 41% | 1010.7 hPa | 0 mm | 1.34 m/s, 52° | 680 W/m² | - |
| 1777977611 | 22.22° C | 42% | 1011 hPa | 0 mm | 0.89 m/s, 68° | 636 W/m² | - |
| 1777977003 | 22.22° C | 42% | 1011.1 hPa | 0 mm | 0.89 m/s, 65° | 688 W/m² | - |
| 1777976403 | 22.78° C | 40% | 1011.6 hPa | 0 mm | 0.45 m/s, 46° | 685 W/m² | - |
* Rain latest hour (hover to see other rain measurements)
** Current wind speed in m/s (hover to see current wind gust speed)